TimeMST,TemperatureF,Dew PointF,Humidity,Sea Level PressureIn,VisibilityMPH,Wind Direction,Wind SpeedMPH,Gust SpeedMPH,PrecipitationIn,Events,Conditions,WindDirDegrees,DateUTC
12:56 AM,3.9,1.0,88,30.40,-9999.0,Calm,Calm,-,N/A,,Unknown,0,2013-12-29 07:56:00
1:56 AM,1.0,-2.0,87,30.43,-9999.0,Calm,Calm,-,N/A,,Unknown,0,2013-12-29 08:56:00
2:56 AM,-0.9,-4.0,87,30.43,-9999.0,Calm,Calm,-,N/A,,Unknown,0,2013-12-29 09:56:00
3:56 AM,-2.9,-8.0,79,30.47,-9999.0,Calm,Calm,-,N/A,,Unknown,0,2013-12-29 10:56:00
4:56 AM,-4.0,-9.0,79,30.46,-9999.0,Calm,Calm,-,N/A,,Unknown,0,2013-12-29 11:56:00
5:56 AM,-5.1,-9.0,83,30.54,-9999.0,Calm,Calm,-,N/A,,Unknown,0,2013-12-29 12:56:00
6:56 AM,-5.1,-9.0,83,30.56,-9999.0,Variable,3.5,-,N/A,,Unknown,0,2013-12-29 13:56:00
7:56 AM,-4.0,-8.0,83,30.57,-9999.0,NW,3.5,-,N/A,,Unknown,320,2013-12-29 14:56:00
8:56 AM,1.9,-0.9,88,30.49,-9999.0,Calm,Calm,-,N/A,,Unknown,0,2013-12-29 15:56:00
9:56 AM,10.0,8.1,92,30.45,-9999.0,Calm,Calm,-,N/A,,Unknown,0,2013-12-29 16:56:00
10:56 AM,14.0,10.9,88,30.41,-9999.0,SE,3.5,-,N/A,,Unknown,140,2013-12-29 17:56:00
11:56 AM,17.1,10.0,74,30.38,-9999.0,Variable,3.5,-,N/A,,Unknown,0,2013-12-29 18:56:00
12:56 PM,18.0,8.1,65,30.38,-9999.0,Variable,4.6,-,N/A,,Unknown,0,2013-12-29 19:56:00
1:56 PM,17.1,8.1,68,30.38,-9999.0,Variable,4.6,-,N/A,,Unknown,0,2013-12-29 20:56:00
2:56 PM,16.0,10.0,77,30.37,-9999.0,Variable,3.5,-,N/A,,Unknown,0,2013-12-29 21:56:00
3:56 PM,16.0,10.0,77,30.38,-9999.0,Variable,4.6,-,N/A,,Unknown,0,2013-12-29 22:56:00
4:56 PM,15.1,10.9,84,30.37,-9999.0,Variable,3.5,-,0.01,,Unknown,0,2013-12-29 23:56:00
5:56 PM,15.1,12.0,88,30.38,-9999.0,Variable,3.5,-,0.01,,Unknown,0,2013-12-30 00:56:00
6:56 PM,15.1,10.9,84,30.39,-9999.0,Calm,Calm,-,N/A,,Unknown,0,2013-12-30 01:56:00
7:56 PM,15.1,12.0,88,30.39,-9999.0,Calm,Calm,-,0.02,,Unknown,0,2013-12-30 02:56:00
8:56 PM,15.1,10.9,84,30.35,-9999.0,Variable,5.8,-,N/A,,Unknown,0,2013-12-30 03:56:00
9:56 PM,15.1,12.0,88,30.32,-9999.0,Calm,Calm,-,N/A,,Unknown,0,2013-12-30 04:56:00
10:56 PM,16.0,12.9,88,30.31,-9999.0,North,-9999.0,-,N/A,,Unknown,0,2013-12-30 05:56:00
11:56 PM,16.0,12.9,88,30.28,-9999.0,West,6.9,16.1,N/A,,Unknown,280,2013-12-30 06:56:00